Location: Montreal
(45.5000°N, 73.5833°W)
Time: 22:43:40
(UTC-04:00)

ISS - Pass Details

Date: 09 October 2017
Orbit: 401 x 408 km, 51.6° (Epoch: 22 October)

Event Time Altitude Azimuth Distance (km) Brightness Sun altitude
Rises 18:57:29 0° 296° (WNW) 2,325 1.3 -7.5°
Reaches altitude 10° 18:59:43 10° 306° (NW) 1,466 -0.1 -7.9°
Maximum altitude 19:02:42 32° 12° (NNE) 731 -2.7 -8.4°
Enters shadow 19:05:23 12° 75° (ENE) 1,353 -1.8 -8.9°
